Weather History for Trieste, Italy

Change the Weather History Date:

Saturday, January 12, 2013

  Actual Average Record
Temperature  
Mean Temperature 42 °F -  
Max Temperature 46 °F 46 °F 59 °F (2008)
Min Temperature 39 °F 38 °F 24 °F (2003)
Degree Days  
Heating Degree Days 22    
Moisture  
Dew Point 27 °F    
Average Humidity 53    
Maximum Humidity 76    
Minimum Humidity 25    
Precipitation  
Precipitation 0.00 in 0.09 in - ()
Sea Level Pressure  
Sea Level Pressure 29.98 in    
Wind  
Wind Speed 11 mph ()    
Max Wind Speed 21 mph    
Max Gust Speed 38 mph    
Visibility 7.6 miles    
Events      
Averages and records for this station are not official NWS values.
T = Trace of Precipitation, MM = Missing Value Source: Averaged Metar Reports

Daily Weather History Graph

Daily Weather History Graph

Search for Another Location

Airport:

Trip Planner

Search our weather history database for the weather conditions in past years. The results will help you decide how hot, cold, wet, or windy it might be!

Date:

Astronomy

Jan. 12, 2013 Rise Set
Actual Time 7:43 AM CET 4:43 PM CET
Civil Twilight 7:09 AM CET 5:17 PM CET
Nautical Twilight 6:32 AM CET 5:54 PM CET
Astronomical Twilight 5:57 AM CET 6:29 PM CET
Moon 7:45 AM CET (1/12) 5:57 PM CET (1/12)
Length of Visible Light 10h 07m
Length of Day
9h 00m
New Moon, 1% of the Moon is Illuminated
Jan 12
New Moon
Jan 19
First Quarter
Jan 27
Full
Feb 3
Last Quarter
Feb 10
New

Hourly Weather History & Observations

Time (CET) Temp. Windchill Dew Point Humidity Pressure Visibility Wind Dir Wind Speed Gust Speed Precip Events Conditions
12:55 AM 42.8 °F 34.8 °F 30.2 °F 61% 29.92 in - ENE 17.3 mph 34.5 mph N/A   Clear
1:00 AM 44 °F - 29 °F 44% 29.92 in 6 mi ENE 17.3 mph - -  
1:55 AM 42.8 °F 34.3 °F 26.6 °F 53% 29.92 in - ENE 19.6 mph 36.8 mph N/A   Clear
2:55 AM 42.8 °F 34.3 °F 26.6 °F 53% 29.92 in - NE 19.6 mph 38.0 mph N/A   Clear
3:55 AM 41.0 °F 31.6 °F 24.8 °F 53% 29.92 in - ENE 20.7 mph 36.8 mph N/A   Clear
4:55 AM 41.0 °F 32.2 °F 23.0 °F 49% 29.95 in - ENE 18.4 mph 36.8 mph N/A   Clear
5:55 AM 39.2 °F 30.2 °F 26.6 °F 61% 29.92 in - ENE 17.3 mph 34.5 mph N/A   Clear
6:55 AM 39.2 °F 30.2 °F 24.8 °F 56% 29.95 in - ENE 17.3 mph 34.5 mph N/A   Clear
7:00 AM 40 °F - 26 °F 44% 29.96 in 6 mi ENE 17.3 mph - -  
7:55 AM 39.2 °F 29.8 °F 21.2 °F 49% 29.98 in 6.2 mi ENE 18.4 mph 35.7 mph N/A   Partly Cloudy
8:55 AM 39.2 °F 32.0 °F 21.2 °F 49% 29.98 in - ENE 11.5 mph 26.5 mph N/A   Clear
10:55 AM 42.8 °F 37.5 °F 21.2 °F 42% 30.01 in - ENE 9.2 mph - N/A   Clear
11:55 AM 44.6 °F 41.4 °F 21.2 °F 39% 30.01 in - East 5.8 mph - N/A   Clear
12:55 PM 44.6 °F 43.1 °F 21.2 °F 39% 30.01 in - East 3.5 mph - N/A   Clear
1:00 PM 45 °F - 21 °F 25% 30.01 in 12 mi East 3.5 mph - -   Overcast
1:55 PM 46.4 °F - 21.2 °F 37% 29.98 in 6.2 mi Variable 2.3 mph - N/A   Scattered Clouds
2:55 PM 44.6 °F - 24.8 °F 46% 29.98 in 6.2 mi Calm Calm - N/A   Scattered Clouds
4:55 PM 44.6 °F - 30.2 °F 57% 30.01 in 6.2 mi East 1.2 mph - N/A   Scattered Clouds
5:55 PM 42.8 °F 41.1 °F 32.0 °F 66% 30.01 in - NE 3.5 mph - N/A   Clear
6:55 PM 42.8 °F - 32.0 °F 66% 30.01 in - NE 2.3 mph - N/A   Clear
7:00 PM 43 °F - 32 °F 54% 30.01 in 12 mi NE 2.3 mph - -   Mostly Cloudy
8:55 PM 42.8 °F - 33.8 °F 70% 29.98 in - ENE 1.2 mph - N/A   Clear
9:55 PM 42.8 °F - 35.6 °F 76% 30.01 in - ENE 2.3 mph - N/A   Clear
10:55 PM 42.8 °F - 35.6 °F 76% 30.01 in - ENE 2.3 mph - N/A   Clear
11:55 PM 42.8 °F 40.1 °F 28.4 °F 57% 30.01 in - East 4.6 mph - N/A   Clear